Temperature
11 10 9 10 11 11 11 11 11 11 11 11 10 10 10 10 10 10 10 9 9 8 8 8 8 7 7 8 8 8 8 8 9 9 9 9 9 9 9 9 9 9 9 9
10 9 11 11 11 11 11 10 10 10 11 10 10 10 10 10 9 9 9 9 8 8 8 7 7 7 7 7 7 7 8 8 8 8 8 8 8 8 8 9 9 9 9 9
10 10 11 11 10 10 10 10 10 9 9 10 10 9 10 10 10 9 9 8 8 8 7 7 6 6 6 6 6 7 7 7 7 7 7 7 8 8 8 8 8 8 8 8
10 10 10 10 10 10 9 10 10 9 8 8 10 8 9 9 9 9 8 8 7 7 7 6 6 5 5 6 6 6 6 6 7 7 7 7 7 7 7 7 7 8 8 8
9 9 9 9 9 9 9 10 9 9 8 8 9 8 8 9 8 8 7 7 7 6 6 5 5 5 5 5 5 5 6 6 6 6 6 6 6 6 7 7 7 7 7 7
8 9 9 9 9 9 9 9 9 8 8 7 8 8 8 9 8 8 7 7 6 6 5 5 5 5 5 5 5 5 5 6 6 6 6 6 6 6 6 6 6 6 6 6
8 8 8 8 8 8 8 7 6 7 7 7 9 8 8 8 8 8 7 6 6 5 5 4 4 4 4 4 4 4 5 5 5 5 5 5 5 5 5 6 5 6 6 6
7 7 8 8 8 7 7 7 6 6 7 8 9 8 7 7 7 7 7 6 5 5 4 4 3 3 3 4 4 4 4 4 4 4 5 5 5 5 5 5 5 5 5 5
6 7 7 7 7 7 7 7 8 6 6 6 7 8 7 7 7 6 6 5 5 4 4 3 3 3 3 3 3 3 3 3 3 4 4 4 4 4 4 4 4 4 4 5
6 5 6 7 7 6 7 7 6 6 6 7 8 8 7 6 5 5 5 5 4 4 3 3 3 2 2 2 2 2 2 2 3 3 3 3 3 3 3 4 3 4 4 4
5 4 5 6 5 6 6 6 6 6 6 6 6 6 7 6 5 5 5 5 4 3 3 2 2 2 2 2 2 2 2 2 2 2 3 3 3 3 3 3 3 3 3 3
5 4 4 5 6 6 6 6 6 5 5 6 5 5 6 5 5 5 4 4 3 3 2 2 1 1 1 1 1 1 1 1 2 2 2 2 2 2 2 2 3 3 3 3
4 3 3 5 4 4 4 5 5 4 4 4 5 5 5 5 4 4 4 3 3 2 2 1 1 1 1 1 1 1 1 1 1 1 1 1 2 2 2 2 2 2 2 2
4 2 3 4 4 4 3 4 4 4 3 4 5 4 4 4 3 3 3 3 2 2 1 1 1 1 0 0 0 0 0 0 0 0 1 1 1 1 1 1 1 1 1 2
2 2 2 3 4 3 3 3 3 3 3 3 4 4 3 3 3 2 2 2 1 1 1 0 0 0 0 -0 -0 -0 -0 -0 -0 0 0 0 0 0 1 1 1 1 1 1
1 1 1 2 3 3 3 3 3 3 3 3 3 3 3 3 2 2 1 1 1 0 0 -0 -0 -0 -0 -0 -0 -0 -0 -0 -0 -0 -0 -0 0 0 0 0 0 0 0 1
1 0 1 2 3 2 2 2 2 2 2 2 2 2 2 1 1 1 1 0 -0 -0 -1 -1 -1 -1 -1 -0 -0 -0 -0 -1 -1 -1 -0 -0 -0 -0 -0 -0 -0 -0 -0 -0
-0 0 1 1 2 2 2 2 2 2 1 1 1 1 1 0 0 0 -0 -0 -1 -1 -1 -1 -1 -1 -1 -1 -1 -1 -1 -1 -1 -1 -1 -1 -1 -1 -1 -1 -1 -1 -1 -1
0 0 1 1 2 2 2 2 1 1 0 0 -0 -0 -0 -0 -0 -1 -1 -1 -1 -1 -2 -2 -1 -1 -1 -1 -1 -1 -1 -1 -1 -1 -2 -2 -1 -1 -1 -1 -1 -1 -1 -1
-0 -1 0 1 2 2 2 0 1 0 -0 -0 -1 -1 -1 -1 -2 -2 -1 -2 -2 -2 -2 -2 -2 -2 -2 -2 -2 -2 -2 -2 -2 -2 -2 -2 -2 -2 -2 -2 -2 -2 -2 -2
-1 -1 -0 1 1 1 -0 -0 0 0 -0 -1 -1 -1 -2 -2 -2 -2 -2 -2 -2 -2 -2 -2 -2 -2 -2 -2 -2 -2 -2 -2 -2 -3 -3 -3 -3 -2 -2 -2 -2 -2 -3 -3
-1 -0 -0 0 1 1 -1 -1 -1 -1 -1 -1 -1 -2 -2 -2 -3 -3 -2 -2 -2 -3 -3 -2 -2 -2 -2 -2 -3 -3 -3 -3 -3 -3 -3 -3 -3 -3 -3 -3 -3 -3 -3 -3
-1 -1 -0 -0 0 -0 -1 -1 -1 -1 -1 -1 -2 -2 -2 -3 -3 -3 -3 -3 -3 -3 -3 -3 -3 -3 -3 -3 -3 -3 -3 -3 -3 -3 -3 -3 -3 -3 -3 -3 -3 -3 -4 -4
-1 -1 -1 -1 -1 -1 -1 -1 -1 -1 -2 -2 -2 -2 -2 -3 -3 -3 -3 -3 -3 -4 -3 -3 -3 -3 -3 -3 -3 -3 -3 -3 -4 -4 -4 -4 -4 -4 -4 -4 -4 -4 -4 -4
-1 -2 -2 -2 -2 -1 -1 -1 -1 -2 -2 -2 -2 -3 -3 -3 -3 -4 -4 -4 -4 -4 -4 -4 -4 -4 -4 -4 -4 -4 -4 -4 -4 -4 -4 -4 -4 -4 -4 -5 -5 -5 -5 -5
-2 -2 -2 -1 -1 -2 -2 -1 -1 -2 -2 -2 -3 -3 -3 -3 -4 -4 -4 -4 -4 -4 -4 -4 -4 -4 -4 -4 -4 -4 -4 -4 -4 -5 -5 -5 -5 -5 -5 -5 -5 -5 -5 -5
Wind_Speed
4 4 3 3 5 6 6 7 7 5 2 3 7 7 6 4 3 2 2 1 0 1 2 2 2 2 2 2 2 2 1 0 0 0 1 1 1 1 1 1 2 2 3 4
3 5 3 3 5 6 7 7 6 3 2 4 7 8 6 5 4 3 1 0 1 1 2 2 3 2 2 1 2 2 1 1 1 0 1 1 1 1 1 0 1 2 2 3
5 1 2 4 4 5 6 5 4 4 6 6 5 5 4 4 3 3 1 1 1 1 2 2 3 2 2 2 2 2 2 1 1 1 1 0 1 0 0 1 1 1 2 3
3 2 3 4 4 4 4 3 4 4 3 3 3 4 3 5 4 3 2 2 1 2 3 3 3 3 3 3 3 3 3 2 1 1 1 1 2 2 2 2 2 1 2 3
2 0 2 3 4 4 2 4 4 5 5 4 5 4 3 5 3 2 2 2 3 4 4 5 5 5 5 5 4 4 3 3 1 0 0 1 1 2 1 1 2 2 1 2
3 1 1 2 3 3 3 3 4 4 2 4 5 5 3 1 2 3 3 3 3 4 4 5 5 5 5 5 4 4 3 3 2 1 1 0 1 2 1 1 2 1 1 2
3 3 1 1 2 1 2 1 1 1 2 4 3 3 2 2 3 4 4 3 3 3 4 4 5 5 5 5 5 5 5 4 2 1 1 1 1 1 2 2 2 2 2 2
2 3 3 0 1 1 2 1 1 2 3 2 1 3 1 3 5 6 5 4 4 5 5 5 5 4 4 4 5 5 5 4 3 2 1 1 1 1 1 2 2 2 2 2
2 2 1 1 1 2 2 2 1 1 3 2 3 2 2 3 4 4 5 5 4 4 5 5 5 4 4 4 4 5 5 5 4 3 2 2 1 1 1 2 1 1 2 2
2 3 2 1 1 2 2 1 0 1 2 3 3 2 1 1 1 2 3 3 4 4 5 5 5 5 5 5 5 6 5 5 5 4 3 3 2 2 1 1 1 2 2 2
2 1 2 2 3 3 2 2 2 2 2 2 3 1 3 2 2 2 2 3 3 4 4 4 4 5 5 5 5 4 5 5 5 4 4 3 3 2 1 1 2 2 2 2
1 1 3 2 1 1 1 1 2 2 3 3 2 2 3 4 4 4 4 3 3 4 4 4 4 5 5 5 5 4 4 4 4 4 4 4 3 2 2 2 2 2 2 2
1 1 1 1 0 0 1 2 1 1 1 2 3 3 1 4 5 5 4 4 4 4 4 4 4 4 4 4 4 4 4 4 3 3 3 3 4 3 3 2 2 2 2 2
0 1 3 4 2 1 3 3 3 3 3 4 5 4 3 3 4 4 4 4 4 3 3 3 4 4 4 4 4 5 5 4 4 4 3 3 3 3 3 2 2 2 1 1
1 2 3 5 5 3 5 5 5 6 6 5 5 5 5 3 3 3 3 4 4 4 4 4 4 4 4 5 5 5 5 5 4 4 3 3 3 3 3 3 2 2 1 1
1 2 2 4 4 3 5 6 6 7 6 7 7 8 5 4 3 3 4 4 4 5 5 5 5 5 5 5 5 4 4 4 4 3 4 4 3 3 3 3 2 2 1 1
2 2 1 2 1 3 6 5 6 5 4 4 6 5 3 4 5 4 4 4 4 5 6 6 6 5 5 5 5 5 4 4 3 3 3 3 3 3 3 3 3 2 2 2
3 2 2 2 1 5 3 1 2 3 3 2 2 3 3 3 5 3 3 3 4 5 6 6 6 5 5 5 5 5 5 4 3 3 3 3 3 3 3 3 3 3 2 2
2 2 2 2 3 5 2 0 1 2 3 1 2 4 4 4 4 2 4 4 4 4 5 5 5 5 5 5 5 4 4 4 4 4 4 3 3 3 3 3 2 2 2 2
0 1 2 3 3 4 2 1 1 1 2 1 1 3 3 4 2 3 5 6 5 5 4 5 5 5 5 5 5 5 4 4 4 4 4 3 3 2 2 2 2 2 1 1
3 3 4 5 4 4 1 1 1 2 4 1 1 2 2 2 3 5 6 5 5 5 5 5 4 4 4 5 5 5 4 4 4 4 3 3 3 3 3 2 2 2 2 2
4 4 4 3 4 5 1 2 3 3 1 1 1 1 2 3 4 4 5 5 5 5 5 5 4 4 5 5 4 5 5 5 4 3 3 3 3 3 3 3 3 2 2 2
4 4 3 4 4 1 3 3 2 1 1 1 1 1 2 3 4 4 5 5 5 4 5 4 4 4 4 4 4 4 5 5 4 3 3 3 3 3 3 2 3 3 2 2
2 2 2 3 4 3 2 2 0 0 1 1 1 1 2 3 3 4 4 4 4 4 4 4 4 4 4 4 4 4 5 5 4 4 3 3 3 3 3 3 3 2 2 2
2 3 3 4 4 3 2 2 2 1 1 1 1 1 2 2 3 3 4 4 4 4 3 3 3 3 3 4 4 4 4 4 4 4 3 3 3 2 3 3 3 2 2 2
3 4 5 5 4 3 3 1 0 1 1 1 1 2 2 2 3 3 3 3 4 4 3 3 3 3 3 3 4 4 4 4 4 3 3 3 2 2 2 2 3 4 4 5
Wind_Direction
208 227 225 230 239 275 294 286 284 287 270 269 254 258 248 232 222 246 263 268 316 341 9 33 59 83 58 25 6 344 359 266 184 150 154 144 181 202 168 156 175 176 175 171
233 235 263 281 277 274 279 282 292 318 339 276 266 264 247 207 198 199 206 328 349 350 19 55 51 63 57 18 348 344 334 271 197 209 187 182 177 228 201 116 180 177 161 162
234 271 329 288 282 281 274 269 297 313 317 260 257 267 204 171 157 149 139 73 19 33 44 46 39 46 40 19 347 345 329 299 232 219 173 171 141 236 252 201 185 178 191 181
249 244 274 279 283 293 278 314 319 308 305 273 235 272 213 170 170 155 120 77 53 52 59 52 36 29 29 16 7 2 342 333 274 213 189 202 214 211 217 199 198 209 208 182
267 342 281 271 305 314 304 317 290 270 268 286 241 241 258 159 171 157 120 84 61 60 58 55 47 36 31 22 18 6 358 360 24 52 222 210 253 247 215 176 187 205 209 183
270 310 333 312 314 298 307 297 269 240 253 265 226 204 265 183 174 146 122 87 69 60 57 52 45 38 32 24 18 5 359 7 36 47 31 236 235 262 243 195 199 204 209 206
244 213 176 285 287 226 323 28 3 290 224 246 180 190 239 50 54 108 120 94 66 63 55 42 35 29 28 19 8 7 9 13 34 53 30 278 255 260 255 219 205 209 212 220
262 242 180 211 309 263 249 241 182 244 265 299 270 220 158 93 60 70 83 83 62 47 41 31 26 22 22 19 9 9 11 9 9 20 11 328 290 272 281 270 227 227 215 222
281 260 107 61 332 315 229 231 300 280 278 263 237 196 108 92 65 72 75 68 52 35 28 22 19 19 19 22 17 15 15 13 4 5 5 359 342 333 317 309 279 256 239 229
308 278 213 170 207 282 286 311 136 208 258 266 254 223 210 142 61 63 61 54 44 35 24 19 16 15 16 22 22 24 25 19 9 8 2 352 351 347 326 308 303 273 254 245
308 254 232 185 201 209 187 201 226 242 254 250 273 285 28 75 82 78 58 52 50 41 25 16 12 15 15 21 24 23 23 22 13 7 1 352 341 327 317 295 290 284 276 258
319 263 258 217 117 0 307 243 188 204 258 244 258 270 45 60 61 57 45 40 42 46 33 23 15 13 14 17 14 12 15 18 9 2 357 350 340 335 326 309 301 291 278 268
3 188 282 248 195 356 276 271 259 256 285 246 237 245 71 47 40 42 36 30 31 35 30 20 13 12 10 6 1 0 5 5 359 357 351 346 340 337 323 311 316 313 296 278
60 210 217 233 250 234 248 246 225 197 220 250 236 250 296 2 14 15 20 19 24 23 13 7 4 1 358 355 355 352 348 350 352 349 346 343 337 334 336 339 332 321 304 290
132 230 246 272 280 267 259 251 222 216 226 234 262 271 285 326 345 357 10 11 4 358 1 0 356 354 350 347 344 343 340 341 345 348 345 334 332 341 354 355 346 337 332 320
152 235 274 271 254 256 265 257 237 234 244 247 266 279 299 336 1 352 355 357 350 351 353 353 352 349 346 340 334 334 333 334 336 334 329 330 340 355 1 356 355 354 356 356
185 182 233 263 305 312 271 243 218 217 230 225 244 261 332 344 340 334 341 357 355 351 351 347 341 335 331 330 330 324 315 314 317 320 326 335 343 354 354 354 9 13 9 23
174 194 223 276 336 250 249 49 155 203 252 255 276 313 347 331 323 339 2 3 354 352 343 337 333 331 327 326 326 324 330 329 329 334 335 336 348 354 352 6 10 8 20 27
189 188 224 239 255 266 253 224 128 190 267 291 279 307 329 331 320 333 8 4 345 336 329 325 326 327 332 332 329 338 342 343 344 346 345 344 351 358 2 0 351 351 14 16
155 164 216 231 242 252 242 33 24 99 271 336 336 306 327 346 323 296 343 344 339 341 340 337 337 338 340 337 345 353 348 347 342 340 338 340 349 350 342 337 341 355 5 358
168 194 216 237 244 260 247 257 86 167 256 306 314 299 315 291 269 295 323 335 340 341 343 345 344 343 338 340 355 358 353 346 335 339 343 353 358 351 347 2 12 13 7 8
181 188 201 212 228 249 160 131 173 218 300 7 339 326 311 299 304 313 323 332 338 345 346 348 348 343 344 350 357 356 349 342 345 353 360 359 360 357 0 14 16 19 20 27
195 199 196 203 218 192 146 174 205 176 247 298 325 321 307 300 300 313 321 328 331 339 341 343 340 337 344 356 5 356 343 345 352 6 4 360 4 7 8 17 18 20 22 25
205 209 218 248 250 232 194 188 231 266 247 296 314 305 303 294 305 318 323 326 329 333 333 332 336 341 343 353 3 353 345 351 359 2 2 1 9 12 15 18 21 23 16 10
227 179 221 247 257 267 238 219 234 245 258 311 319 301 290 299 305 305 312 317 319 323 323 327 336 340 342 350 356 353 355 359 360 358 358 359 7 12 15 18 18 12 10 3
219 212 218 238 241 229 250 240 220 223 271 291 299 304 311 292 295 307 312 321 329 329 333 341 346 347 347 353 350 353 356 357 355 351 351 353 358 5 11 13 10 15 8 8
Height
1473 1475 1474 1472 1471 1470 1470 1470 1468 1467 1466 1468 1468 1467 1466 1466 1467 1467 1468 1468 1469 1469 1469 1468 1468 1468 1468 1468 1468 1468 1468 1468 1468 1469 1470 1472 1474 1476 1478 1480 1481 1483 1484 1486
1473 1473 1470 1469 1469 1469 1469 1470 1469 1467 1466 1468 1466 1465 1462 1463 1464 1465 1466 1467 1468 1468 1467 1466 1466 1465 1465 1466 1466 1465 1465 1465 1466 1467 1468 1470 1471 1473 1475 1476 1478 1479 1481 1483
1472 1471 1469 1469 1469 1469 1468 1470 1470 1471 1469 1465 1466 1464 1460 1460 1462 1464 1465 1466 1467 1467 1466 1465 1464 1464 1464 1463 1463 1463 1463 1463 1464 1465 1465 1467 1469 1470 1471 1473 1474 1476 1478 1479
1470 1469 1469 1469 1469 1469 1470 1467 1468 1470 1473 1471 1466 1471 1460 1459 1461 1462 1464 1465 1465 1465 1465 1464 1464 1463 1463 1462 1462 1462 1461 1461 1461 1462 1463 1464 1465 1466 1468 1470 1471 1473 1475 1476
1470 1469 1469 1470 1469 1469 1469 1467 1468 1469 1471 1472 1466 1470 1462 1457 1460 1461 1462 1464 1464 1464 1464 1464 1463 1463 1462 1461 1461 1460 1460 1459 1459 1460 1461 1462 1464 1464 1465 1467 1468 1469 1471 1472
1472 1471 1471 1471 1470 1469 1469 1468 1467 1468 1472 1477 1464 1467 1463 1458 1458 1459 1461 1463 1464 1464 1464 1463 1462 1462 1461 1460 1459 1458 1457 1457 1457 1458 1459 1460 1461 1462 1462 1463 1465 1466 1467 1469
1472 1471 1471 1471 1471 1470 1471 1475 1480 1478 1478 1472 1457 1462 1465 1459 1457 1458 1461 1463 1464 1464 1463 1463 1461 1460 1459 1458 1457 1456 1455 1455 1456 1457 1457 1458 1458 1459 1460 1461 1462 1463 1464 1465
1474 1474 1471 1471 1472 1473 1472 1474 1482 1482 1475 1467 1460 1463 1463 1460 1459 1459 1461 1463 1464 1463 1463 1462 1461 1460 1458 1457 1456 1455 1454 1454 1454 1455 1456 1456 1456 1457 1458 1458 1459 1460 1461 1462
1475 1474 1472 1471 1472 1472 1472 1474 1472 1477 1475 1476 1466 1459 1462 1460 1460 1461 1462 1463 1463 1463 1463 1462 1461 1459 1458 1456 1455 1454 1454 1453 1454 1453 1454 1454 1454 1454 1455 1455 1456 1457 1458 1459
1476 1479 1473 1472 1473 1473 1473 1472 1477 1480 1480 1474 1461 1458 1464 1463 1463 1462 1463 1463 1463 1463 1463 1461 1460 1459 1457 1456 1454 1454 1453 1453 1453 1452 1452 1452 1452 1452 1452 1453 1452 1453 1454 1455
1476 1481 1476 1474 1475 1473 1474 1475 1475 1476 1475 1475 1471 1469 1461 1462 1462 1462 1463 1463 1463 1463 1462 1461 1460 1458 1457 1455 1454 1453 1452 1451 1451 1451 1450 1450 1450 1450 1450 1450 1450 1450 1451 1452
1477 1480 1479 1473 1471 1472 1472 1471 1474 1480 1478 1473 1475 1475 1462 1462 1462 1463 1463 1464 1463 1463 1462 1460 1459 1457 1456 1455 1453 1452 1451 1450 1449 1449 1448 1448 1447 1447 1447 1447 1447 1447 1447 1448
1478 1481 1481 1475 1478 1476 1475 1473 1474 1476 1477 1477 1477 1474 1464 1463 1463 1463 1464 1464 1463 1462 1461 1460 1458 1457 1455 1454 1453 1452 1450 1449 1448 1447 1446 1446 1445 1445 1444 1444 1444 1444 1444 1445
1478 1482 1483 1478 1474 1475 1476 1474 1475 1477 1480 1475 1469 1469 1465 1464 1465 1464 1464 1463 1463 1462 1461 1459 1458 1456 1455 1453 1452 1451 1449 1448 1447 1446 1444 1444 1443 1442 1442 1441 1441 1441 1441 1441
1479 1482 1479 1476 1472 1473 1473 1472 1473 1475 1473 1474 1467 1466 1465 1465 1465 1465 1464 1463 1462 1461 1460 1459 1457 1456 1454 1453 1451 1450 1449 1447 1446 1445 1443 1442 1441 1440 1440 1439 1439 1438 1438 1438
1479 1481 1480 1476 1471 1471 1471 1469 1470 1471 1470 1469 1467 1467 1464 1464 1464 1463 1463 1462 1462 1461 1460 1458 1457 1455 1453 1452 1450 1449 1447 1446 1445 1443 1442 1441 1440 1439 1438 1437 1436 1435 1435 1435
1480 1482 1480 1474 1471 1472 1472 1467 1467 1468 1467 1467 1467 1466 1464 1464 1464 1463 1463 1462 1461 1460 1459 1457 1456 1454 1452 1451 1449 1447 1446 1445 1443 1442 1440 1439 1438 1437 1436 1435 1434 1433 1433 1433
1480 1480 1479 1477 1477 1476 1468 1463 1462 1465 1465 1465 1464 1464 1464 1465 1464 1463 1462 1461 1460 1459 1458 1456 1454 1452 1451 1449 1447 1446 1444 1443 1441 1440 1438 1437 1437 1436 1435 1433 1432 1432 1431 1431
1476 1479 1478 1477 1474 1468 1465 1463 1464 1466 1466 1464 1464 1463 1463 1463 1461 1461 1460 1460 1459 1458 1457 1455 1453 1451 1449 1448 1446 1444 1442 1441 1439 1438 1437 1436 1435 1434 1433 1432 1431 1431 1430 1429
1477 1478 1480 1475 1473 1469 1465 1464 1462 1466 1467 1463 1463 1463 1463 1462 1463 1461 1459 1458 1457 1456 1454 1453 1451 1449 1448 1446 1444 1442 1441 1439 1438 1437 1435 1434 1433 1433 1431 1430 1430 1429 1429 1428
1479 1478 1478 1474 1472 1467 1466 1463 1463 1469 1466 1462 1461 1461 1462 1462 1462 1461 1458 1457 1456 1454 1452 1451 1449 1447 1446 1445 1443 1441 1439 1438 1437 1435 1434 1433 1432 1431 1430 1429 1429 1428 1427 1427
1473 1473 1474 1471 1470 1468 1464 1463 1466 1465 1462 1461 1461 1460 1460 1460 1459 1458 1457 1455 1454 1452 1450 1449 1447 1446 1445 1443 1442 1440 1438 1437 1436 1434 1433 1432 1431 1430 1429 1428 1427 1427 1426 1426
1467 1468 1466 1467 1466 1461 1460 1461 1461 1461 1460 1460 1459 1459 1458 1457 1457 1456 1455 1453 1452 1451 1449 1447 1446 1444 1443 1442 1440 1439 1437 1436 1435 1433 1432 1431 1430 1429 1428 1427 1426 1426 1425 1425
1463 1463 1463 1463 1460 1459 1459 1459 1459 1459 1459 1458 1458 1457 1456 1455 1454 1454 1453 1451 1450 1449 1447 1446 1444 1442 1441 1440 1439 1438 1436 1435 1433 1432 1431 1430 1429 1428 1427 1426 1426 1425 1425 1424
1460 1461 1462 1461 1458 1457 1456 1457 1457 1457 1456 1456 1456 1455 1455 1454 1452 1452 1450 1449 1448 1446 1445 1444 1442 1441 1440 1439 1438 1437 1435 1434 1433 1431 1430 1430 1429 1428 1427 1426 1425 1425 1425 1424
1457 1459 1459 1456 1454 1456 1455 1454 1454 1454 1454 1454 1453 1453 1453 1452 1451 1450 1448 1447 1446 1444 1443 1442 1441 1440 1439 1438 1437 1436 1435 1433 1432 1431 1430 1429 1428 1427 1426 1425 1425 1425 1424 1424